Search for airport 
image banner adimage banner ad
image banner ad

LECART - Cartama (forestal)

Located in , Spain

ICAO - , IATA -

Data provided by Airmate  

General information

Coordinates: N36°43'24" W4°41'54"
Elevation is 656 feet MSL.
 
Rated:
View ratings: [VIEW]


View others Airports in Málaga

Operational data

Open for public use
Current time UTC:
Current local time:
Weather at : LEMG - Malaga/Costa Del Sol ( 19 km )
METAR: LEMG 210300Z 28009KT CAVOK 13/08 Q1015 NOSIG
TAF: TAF LEMG 202300Z 2100/2124 29006KT 9999 FEW035 TX22/2113Z TN11/2106Z BECMG 2111/2113 14006KT BECMG 2118/2121 29004KT
View NOTAMs / SUP AIP / TFR affecting this airport [VIEW]
Communications frequencies: [VIEW]

Runways:

RWY identifierQFULength (ft)Width (ft)SurfaceLDA (ft)
0822970ASPH
2622970ASPH

Airport contact information

Address: Spain

Satellite view of LECART